Probability
39 32 26 26 32 32 32 23 26 23 19 19 19 19 19 19 23 16 19 23 19 19 16 13 16 16 6 6 3 3 0 0 0 0 0 3 3 0 0 0 0 0 0
35 32 29 29 29 29 29 26 26 23 19 19 23 23 26 26 23 23 23 26 19 19 13 16 16 16 10 6 3 3 3 3 3 3 0 0 0 0 0 0 0 0 0
26 19 19 19 19 23 23 16 26 26 23 19 26 26 29 29 29 23 23 26 16 13 16 16 13 13 10 6 6 6 3 3 3 3 3 0 3 3 0 0 0 0 0
23 19 19 19 19 23 26 23 23 23 26 26 29 29 26 26 29 23 29 19 13 13 13 13 10 10 10 6 6 6 3 3 3 3 3 3 3 3 3 3 3 3 3
19 16 16 16 19 23 16 23 19 23 26 19 23 26 23 23 19 19 19 19 16 13 10 10 10 6 6 3 0 3 3 3 3 3 3 3 3 0 0 0 3 3 3
16 19 19 19 16 19 16 16 19 19 19 19 23 23 16 16 13 13 10 19 16 10 6 6 6 6 6 0 0 0 0 0 3 3 3 3 3 3 3 3 0 0 0
13 13 16 16 13 19 16 16 16 19 19 19 19 16 13 16 6 3 3 3 3 3 6 3 6 10 6 6 0 0 0 0 0 0 0 0 0 3 3 3 0 0 0
19 13 16 16 19 16 19 23 16 16 16 19 16 13 10 10 3 0 0 3 3 3 6 6 3 3 6 3 3 0 0 0 0 0 0 0 0 0 3 3 3 3 3
19 16 16 16 19 16 19 19 16 16 16 16 19 10 10 10 3 0 0 3 3 3 3 3 3 3 3 0 3 0 0 0 0 0 0 0 0 0 0 0 0 3 3
16 16 16 16 16 16 16 16 13 13 16 16 13 16 13 10 3 0 0 3 3 3 3 3 3 3 3 0 3 3 0 0 0 0 0 0 0 0 0 0 0 3 3
19 16 16 16 16 13 13 13 16 13 16 10 10 6 6 6 3 0 0 3 3 3 3 3 3 3 3 0 0 3 3 0 0 0 0 0 0 0 0 0 0 0 3
19 16 16 19 19 16 13 13 13 13 6 6 3 3 3 3 3 0 0 0 3 3 3 3 3 3 0 0 0 3 0 0 0 0 0 0 0 0 0 0 0 0 3
19 16 19 19 19 16 16 16 13 10 10 6 3 3 3 3 3 3 0 0 0 0 3 3 3 3 0 0 0 0 0 0 0 0 0 0 0 0 0 0 0 0 0
26 23 19 19 16 13 13 13 13 10 10 6 6 3 3 3 3 3 0 0 0 0 0 0 0 0 0 0 0 0 0 0 0 0 0 0 0 0 0 0 0 0 0
23 23 16 16 13 10 10 10 10 10 6 10 6 3 3 3 3 0 0 0 0 0 0 0 0 3 0 0 3 3 0 0 0 0 0 0 0 0 0 0 0 3 0
16 13 13 10 10 10 10 10 0 0 0 0 0 0 0 0 0 0 0 0 0 0 0 0 0 0 3 3 3 3 3 3 0 0 0 0 0 0 0 0 0 0 0
10 10 6 6 10 10 10 6 3 0 0 0 0 0 0 0 0 0 0 0 0 0 0 0 0 0 0 6 6 6 6 6 3 0 3 3 0 0 0 0 0 0 0
6 3 6 6 3 6 6 6 3 3 3 0 0 0 0 0 0 0 0 0 0 0 0 0 0 0 0 0 0 3 3 6 3 3 3 3 0 0 0 0 0 0 0
6 3 3 3 3 3 3 3 0 0 0 0 0 0 0 0 0 0 0 0 0 0 0 0 0 0 0 0 3 0 0 3 3 0 0 0 0 0 0 0 0 0 0
3 3 0 0 0 0 0 0 0 0 0 0 0 0 0 0 0 0 0 0 0 0 0 0 0 0 0 3 3 3 3 3 0 0 0 0 0 0 0 0 0 0 0
0 0 0 0 0 3 0 0 0 0 0 0 0 0 0 0 0 0 0 0 0 0 0 0 0 0 0 0 0 3 3 0 0 0 0 0 0 0 0 0 0 0 0
0 0 0 0 0 0 0 0 0 0 0 0 0 0 0 0 0 0 0 0 0 0 0 0 0 0 0 0 0 0 0 0 0 0 0 0 0 0 0 0 0 0 0
0 0 0 0 0 0 0 0 0 0 0 0 0 0 0 0 0 0 0 0 0 0 0 0 0 0 0 0 0 0 0 0 0 0 0 0 0 0 0 0 0 0 0
0 0 0 0 3 3 3 0 0 0 0 0 0 0 0 0 0 0 0 0 0 0 0 0 0 0 0 0 0 0 0 0 0 0 0 0 0 0 0 0 0 0 0
0 0 0 0 0 0 0 0 0 0 0 0 0 0 0 0 0 0 0 0 0 0 0 0 0 0 0 0 0 0 0 0 0 0 0 0 0 0 0 0 0 0 0
0 0 0 0 0 0 0 0 0 0 0 0 0 0 0 0 0 0 0 0 0 0 0 0 0 0 0 0 0 0 0 0 0 0 0 0 0 0 0 0 0 0 0
Height
5882 5881 5880 5878 5877 5876 5875 5873 5872 5871 5870 5868 5867 5866 5864 5863 5862 5860 5859 5857 5856 5854 5852 5851 5849 5848 5846 5845 5843 5841 5840 5838 5836 5834 5832 5830 5829 5827 5825 5823 5822 5821 5820
5879 5878 5876 5875 5873 5872 5870 5868 5867 5866 5865 5863 5862 5860 5859 5858 5856 5855 5853 5852 5850 5849 5847 5845 5843 5842 5840 5839 5837 5835 5834 5832 5830 5828 5825 5823 5822 5820 5818 5817 5815 5814 5813
5875 5874 5872 5870 5869 5868 5865 5863 5861 5860 5859 5858 5856 5855 5854 5852 5851 5849 5848 5846 5844 5842 5841 5839 5837 5836 5834 5832 5831 5829 5827 5825 5823 5821 5819 5817 5815 5813 5811 5810 5808 5807 5806
5870 5869 5868 5866 5865 5863 5861 5859 5856 5854 5853 5852 5851 5850 5848 5847 5845 5844 5842 5840 5838 5836 5834 5833 5831 5829 5828 5826 5824 5822 5820 5818 5816 5814 5812 5810 5808 5806 5804 5803 5801 5800 5799
5865 5864 5863 5862 5860 5858 5856 5854 5852 5849 5848 5846 5845 5844 5842 5841 5839 5838 5836 5834 5832 5830 5828 5826 5824 5823 5821 5819 5817 5815 5813 5811 5809 5807 5805 5803 5801 5799 5797 5795 5794 5793 5792
5861 5859 5858 5857 5855 5853 5851 5849 5847 5845 5843 5841 5839 5838 5836 5835 5833 5831 5830 5827 5825 5823 5821 5819 5818 5816 5814 5812 5810 5808 5806 5804 5802 5800 5798 5796 5794 5792 5790 5788 5787 5785 5784
5855 5855 5853 5851 5850 5848 5846 5844 5841 5839 5837 5836 5834 5833 5831 5829 5827 5826 5823 5821 5819 5817 5815 5813 5811 5809 5807 5805 5803 5801 5799 5797 5795 5793 5790 5788 5786 5784 5783 5781 5779 5777 5775
5851 5850 5848 5846 5844 5842 5840 5838 5836 5834 5832 5830 5829 5827 5825 5824 5821 5819 5817 5815 5813 5810 5807 5805 5804 5802 5800 5798 5796 5793 5791 5789 5787 5785 5783 5781 5778 5776 5774 5772 5770 5768 5767
5846 5844 5843 5841 5839 5837 5835 5833 5831 5829 5827 5825 5823 5821 5819 5817 5815 5813 5811 5808 5806 5803 5800 5798 5797 5795 5793 5791 5788 5786 5784 5782 5779 5777 5775 5772 5770 5768 5766 5764 5762 5760 5758
5840 5839 5837 5836 5833 5831 5829 5827 5825 5823 5821 5819 5817 5815 5813 5811 5809 5806 5804 5801 5799 5797 5794 5792 5790 5788 5786 5783 5781 5779 5777 5774 5771 5769 5767 5764 5762 5759 5757 5755 5753 5752 5750
5834 5833 5831 5830 5828 5826 5823 5821 5819 5817 5815 5813 5811 5809 5806 5804 5802 5799 5797 5794 5792 5789 5787 5784 5782 5780 5777 5775 5773 5771 5768 5766 5763 5761 5758 5756 5754 5752 5749 5747 5745 5744 5742
5827 5826 5825 5823 5822 5820 5817 5814 5812 5810 5808 5806 5804 5801 5799 5797 5795 5792 5789 5787 5784 5782 5779 5777 5774 5772 5769 5767 5764 5762 5760 5757 5755 5752 5750 5748 5746 5743 5741 5739 5737 5735 5734
5821 5819 5818 5816 5815 5813 5811 5808 5806 5803 5801 5799 5796 5794 5792 5789 5787 5784 5782 5779 5777 5774 5772 5769 5767 5764 5761 5758 5756 5754 5751 5749 5747 5745 5742 5740 5737 5735 5733 5731 5729 5727 5725
5813 5812 5810 5809 5807 5806 5804 5801 5799 5796 5794 5792 5789 5787 5784 5782 5779 5776 5774 5772 5769 5767 5764 5762 5759 5756 5753 5750 5748 5745 5743 5740 5738 5736 5734 5731 5729 5727 5725 5723 5721 5719 5717
5806 5804 5803 5801 5799 5798 5796 5794 5791 5789 5787 5785 5782 5780 5777 5775 5772 5769 5767 5764 5762 5759 5756 5754 5751 5748 5745 5742 5739 5737 5734 5732 5730 5727 5725 5723 5720 5718 5716 5714 5712 5710 5708
5798 5796 5795 5793 5791 5789 5788 5786 5783 5782 5779 5777 5774 5772 5769 5767 5764 5762 5759 5756 5754 5751 5748 5745 5742 5739 5737 5734 5731 5729 5726 5723 5721 5719 5716 5714 5711 5709 5706 5704 5702 5700 5698
5790 5788 5786 5784 5783 5781 5780 5778 5776 5774 5771 5769 5767 5764 5762 5759 5757 5754 5751 5748 5745 5743 5740 5737 5734 5731 5728 5726 5723 5720 5718 5715 5712 5710 5707 5705 5702 5700 5697 5695 5692 5690 5689
5781 5780 5778 5776 5775 5773 5772 5770 5768 5766 5764 5761 5759 5757 5754 5751 5749 5745 5743 5740 5738 5735 5732 5728 5725 5722 5719 5717 5714 5712 5709 5706 5704 5701 5699 5696 5693 5691 5688 5685 5683 5681 5679
5773 5772 5770 5768 5767 5765 5763 5761 5759 5757 5755 5753 5750 5748 5746 5743 5740 5737 5735 5732 5730 5727 5723 5720 5717 5714 5711 5708 5705 5703 5700 5698 5695 5692 5690 5687 5684 5681 5678 5676 5673 5671 5669
5765 5763 5762 5760 5758 5757 5755 5753 5751 5749 5747 5744 5742 5740 5737 5735 5732 5729 5727 5724 5721 5718 5715 5711 5708 5705 5702 5699 5696 5694 5691 5688 5686 5683 5680 5677 5674 5672 5669 5666 5663 5661 5658
5756 5754 5753 5751 5750 5748 5746 5744 5742 5740 5738 5736 5733 5731 5729 5726 5723 5721 5718 5715 5712 5709 5706 5703 5700 5697 5694 5691 5687 5684 5681 5678 5676 5673 5670 5667 5664 5661 5659 5656 5653 5650 5648
5747 5745 5744 5743 5741 5739 5737 5735 5733 5731 5729 5727 5725 5723 5720 5718 5715 5712 5709 5707 5704 5700 5697 5694 5691 5688 5685 5682 5678 5675 5672 5669 5666 5663 5660 5658 5655 5651 5648 5645 5642 5640 5637
5739 5737 5736 5734 5732 5730 5728 5726 5724 5722 5721 5719 5716 5714 5711 5709 5706 5703 5701 5698 5695 5691 5688 5685 5682 5678 5675 5672 5669 5666 5663 5660 5657 5653 5650 5647 5644 5641 5638 5634 5631 5629 5626
5731 5730 5728 5726 5724 5722 5720 5718 5715 5713 5712 5710 5707 5705 5702 5700 5697 5694 5691 5688 5685 5682 5679 5675 5672 5669 5665 5662 5659 5655 5652 5649 5646 5643 5640 5637 5634 5631 5627 5624 5620 5617 5615
5724 5722 5720 5718 5716 5714 5712 5709 5707 5705 5703 5701 5699 5697 5694 5691 5689 5686 5683 5679 5676 5673 5669 5666 5662 5659 5655 5652 5649 5645 5642 5639 5636 5633 5629 5626 5623 5620 5616 5613 5609 5606 5603
5716 5714 5712 5710 5708 5706 5704 5701 5699 5697 5695 5693 5690 5688 5685 5683 5680 5677 5673 5670 5667 5663 5660 5656 5652 5649 5645 5642 5639 5635 5632 5629 5626 5622 5619 5616 5612 5609 5606 5602 5599 5595 5592
Wind_Speed
9 10 11 12 12 12 13 13 13 14 14 14 15 15 15 16 16 17 18 18 18 18 18 19 20 20 20 20 20 20 20 21 21 22 22 22 22 22 22 21 20 19 20
10 11 12 12 13 14 15 14 14 15 15 15 16 16 16 17 17 18 18 19 19 19 20 20 20 21 21 21 21 22 22 22 22 23 23 23 23 23 23 22 22 22 22
11 12 13 13 14 15 15 15 15 15 16 16 17 17 18 18 18 19 19 19 20 20 21 21 21 21 22 22 22 23 23 23 23 23 23 23 23 23 23 23 22 22 22
12 14 14 15 16 16 16 16 16 16 16 17 18 18 19 19 19 20 20 21 22 22 21 22 22 22 22 22 23 23 24 24 24 24 23 23 24 24 23 23 23 23 23
13 14 15 16 17 18 18 18 18 17 17 17 18 19 19 20 21 21 21 22 22 21 21 22 22 22 23 23 23 24 24 24 25 25 24 24 24 24 24 24 24 24 24
15 15 16 17 17 18 18 18 18 18 18 17 18 19 20 21 22 23 23 23 23 22 22 22 23 22 23 23 24 24 25 25 26 26 25 25 25 24 25 25 25 25 26
15 16 17 18 19 19 19 18 18 18 18 18 19 20 20 21 21 22 22 23 23 24 23 23 23 23 24 24 25 25 26 26 25 25 25 25 25 25 26 26 26 27 27
17 17 19 19 19 19 19 18 18 18 18 18 19 20 20 21 21 22 22 22 23 23 24 23 23 24 24 25 25 25 24 24 24 25 25 26 26 27 28 28 28 28 28
19 19 19 20 20 19 19 19 19 19 19 20 20 21 21 21 22 22 22 23 23 24 24 24 24 25 25 25 25 26 26 26 26 26 26 27 28 29 29 28 27 27 27
19 20 20 20 20 20 20 20 20 20 20 20 21 22 22 23 23 24 24 24 24 25 24 24 25 25 26 26 25 26 27 27 27 28 28 28 28 28 28 27 27 26 26
20 20 20 20 20 21 21 21 21 21 22 22 22 23 24 24 24 25 25 26 26 26 26 26 26 26 27 28 27 27 28 28 29 29 28 28 27 27 27 27 26 26 26
21 21 21 21 21 22 22 22 22 22 23 23 23 24 25 25 25 25 25 26 26 26 26 26 26 27 28 28 28 28 29 29 29 29 28 28 27 27 27 27 26 26 25
22 22 22 22 22 22 23 23 23 23 24 24 24 25 25 25 25 25 26 26 26 26 27 26 27 27 28 28 28 29 29 29 29 29 28 28 28 27 27 28 27 27 27
23 23 24 24 23 23 24 24 24 24 24 25 25 26 25 25 25 26 26 26 26 27 27 27 28 28 29 28 29 29 29 29 29 29 29 28 29 28 29 29 28 28 28
24 24 25 25 25 25 25 25 25 26 26 26 26 26 26 25 25 26 27 27 27 27 27 28 28 28 29 28 28 28 28 28 28 29 29 29 30 29 28 29 29 29 29
26 26 27 26 25 26 26 26 26 26 26 26 26 27 26 26 26 27 27 27 27 27 27 28 28 27 28 28 28 28 27 27 28 29 30 30 29 29 28 28 29 29 29
26 26 26 26 26 26 26 26 26 27 27 27 27 27 26 26 27 28 28 28 28 29 28 28 29 28 28 28 28 28 28 28 29 29 29 29 29 29 29 29 30 30 29
24 25 25 26 26 26 27 27 27 27 27 27 28 27 27 28 28 29 29 28 28 28 29 29 29 28 28 28 28 29 29 29 29 29 30 30 30 30 30 30 30 30 30
25 26 26 27 27 27 27 27 28 28 29 29 29 28 28 28 29 29 29 28 28 28 28 29 29 29 29 29 29 29 29 29 29 30 30 31 31 30 30 30 31 31 31
26 27 28 28 28 29 29 29 29 29 29 29 28 28 28 28 28 28 27 28 28 29 29 29 29 30 29 29 29 29 30 30 30 30 30 30 31 31 31 31 31 31 31
28 28 28 28 29 29 30 30 30 29 29 28 28 28 29 28 28 28 28 28 29 29 29 29 30 30 30 31 31 31 31 31 31 31 31 31 31 32 32 31 31 32 32
27 27 28 28 29 30 30 30 30 29 29 29 29 28 28 28 28 28 28 28 29 29 30 30 31 31 31 31 31 31 31 31 32 32 32 32 33 33 32 32 32 32 31
28 28 28 29 29 29 29 30 29 28 28 28 28 27 28 28 28 28 28 29 29 30 30 31 31 31 31 32 32 31 31 32 32 32 33 33 33 33 33 33 33 33 32
27 28 28 28 28 28 28 28 27 27 27 27 27 28 28 28 28 28 29 29 29 30 30 31 31 32 32 32 32 32 33 33 33 33 33 33 33 33 33 33 33 33 33
27 27 28 28 27 27 27 26 26 26 27 26 27 28 28 28 28 29 29 30 30 30 31 31 32 32 32 32 32 32 32 33 33 33 33 33 32 33 33 33 33 33 33
25 25 26 26 26 26 26 25 25 25 25 26 26 26 26 27 28 28 29 30 30 31 31 32 32 32 31 31 31 31 31 32 32 32 32 32 32 33 33 33 33 33 34
Wind_Direction
292 295 297 298 296 291 287 287 288 288 289 290 288 288 288 289 289 291 290 290 291 291 292 292 290 289 289 289 289 290 292 293 294 294 292 289 289 288 286 285 284 283 280
291 294 296 298 297 296 290 286 285 285 284 285 286 287 288 289 289 290 292 290 292 292 294 295 294 289 288 288 289 290 290 292 295 295 293 291 290 287 285 283 282 281 281
290 292 295 298 298 300 297 291 287 283 283 284 286 287 287 288 289 290 292 292 293 294 294 294 295 294 291 288 288 289 290 292 294 295 292 291 289 287 286 282 282 280 281
289 292 295 298 300 300 300 298 295 291 288 287 287 286 285 287 290 291 291 292 293 293 294 294 295 295 293 290 290 290 289 291 293 293 292 291 290 288 287 283 281 280 280
288 290 293 296 299 301 302 300 296 296 291 289 287 285 285 286 288 290 291 292 292 293 294 295 294 294 293 291 291 291 290 291 292 292 292 291 289 287 286 284 282 281 279
289 291 291 294 298 300 301 301 302 301 296 292 291 288 287 288 289 291 291 292 293 294 294 293 295 295 295 293 292 291 289 290 290 290 291 289 289 288 287 284 282 280 279
292 293 293 296 298 298 299 300 301 301 299 297 297 295 293 291 292 293 295 297 298 297 295 293 292 294 294 293 292 292 289 288 289 289 289 289 289 289 287 285 283 283 281
293 294 294 294 296 296 296 297 298 299 299 299 298 296 295 295 296 297 296 298 299 300 298 296 296 294 294 293 293 292 292 291 291 291 292 291 290 289 287 286 285 284 282
292 293 294 294 294 294 294 295 296 297 298 298 298 297 295 295 298 300 299 298 298 298 298 295 295 295 296 295 292 290 290 290 291 291 292 292 291 290 288 287 286 284 282
291 293 294 294 294 294 294 294 294 295 296 297 298 298 296 295 295 297 297 298 297 297 296 297 297 297 299 296 293 292 291 291 292 292 292 293 292 289 288 287 286 285 283
289 291 292 293 293 293 294 294 294 294 295 296 297 298 298 295 293 293 294 294 293 294 294 296 296 296 297 295 292 290 290 289 290 292 292 292 291 290 288 287 286 284 283
289 290 291 291 293 294 294 294 294 294 295 296 296 296 296 294 294 293 294 294 294 294 294 296 297 296 297 296 293 291 290 289 290 291 291 291 290 288 286 286 285 283 282
288 289 290 291 293 293 294 294 294 294 295 296 296 296 296 295 294 294 294 295 295 295 294 295 296 295 296 295 292 290 290 289 290 291 292 291 289 286 285 284 284 283 283
286 288 289 290 290 292 292 294 294 294 295 296 297 297 297 298 297 297 297 296 296 296 295 295 297 296 297 295 293 291 290 290 290 291 292 290 288 285 284 283 283 282 281
286 287 288 288 289 289 291 292 293 294 295 296 297 297 297 297 297 297 298 297 297 297 297 297 296 296 297 297 294 291 290 289 290 291 292 290 288 285 284 283 283 283 282
286 287 287 289 290 290 290 291 293 293 293 294 295 297 297 297 297 297 296 296 296 298 298 298 296 295 295 296 295 293 291 290 291 291 290 290 288 286 285 285 283 282 281
285 287 287 289 290 290 290 291 292 292 292 293 294 296 297 297 296 295 294 296 298 299 298 297 297 295 295 295 295 294 292 291 291 290 289 290 291 288 285 284 283 283 282
289 290 290 291 292 291 290 290 290 292 293 293 294 294 295 297 296 295 295 295 297 299 298 297 297 296 296 296 296 295 294 293 292 291 290 291 291 289 287 285 283 283 283
290 290 290 290 290 290 290 290 290 291 292 294 295 294 294 295 295 295 295 296 298 299 299 298 297 295 295 295 295 295 294 293 292 292 292 292 291 291 289 287 285 283 282
290 289 289 289 289 289 289 290 290 292 293 295 295 294 295 294 293 295 296 296 297 298 298 298 298 298 297 296 296 296 295 294 293 293 293 292 292 291 290 290 288 286 285
289 289 289 289 289 288 289 289 289 290 294 296 295 295 295 294 295 296 297 297 298 298 298 299 299 300 299 297 296 295 294 294 294 293 292 293 294 294 293 292 290 288 286
290 289 290 289 289 289 289 289 288 290 292 295 294 294 295 296 296 296 296 296 297 297 298 299 299 299 298 297 296 295 293 293 293 294 294 294 294 295 295 293 291 289 287
289 291 291 291 291 290 290 290 289 290 292 294 294 294 295 296 296 296 296 297 298 298 298 298 298 298 297 296 296 295 294 293 293 293 294 295 295 295 295 294 291 289 288
290 290 292 293 292 292 291 291 291 291 293 294 294 294 295 296 296 296 296 297 298 298 298 298 298 298 298 298 297 296 295 294 294 294 294 295 295 295 295 294 292 290 288
291 290 292 293 293 293 293 292 292 292 293 294 294 295 295 296 297 298 297 298 298 299 300 300 300 300 298 297 296 296 296 296 295 295 295 294 295 295 295 295 294 291 289
292 293 293 294 296 295 294 294 294 295 295 295 296 295 296 297 298 298 299 300 300 301 301 302 302 301 300 299 298 297 298 298 297 296 296 296 296 296 296 295 295 293 290